This is the latest recevied weather packets stored in our database for station/object CE3MXM-12. If no packets are shown the sender has not sent any weather packets the latest 10 day(s).
| Time | Temp. | Humidity | Pressure | Rain* | Wind** | Luminosity | Snow |
|---|---|---|---|---|---|---|---|
| 1777758527 | 18.33° C | 37% | 1014.9 hPa | - | - | - | - |
| 1777758227 | 18.89° C | 38% | 1015.1 hPa | - | - | - | - |
| 1777757926 | 18.89° C | 37% | 1014.9 hPa | - | - | - | - |
| 1777757626 | 19.44° C | 37% | 1015 hPa | - | - | - | - |
| 1777757326 | 19.44° C | 37% | 1014.8 hPa | - | - | - | - |
| 1777757026 | 20° C | 38% | 1014.8 hPa | - | - | - | - |
| 1777756726 | 20.56° C | 37% | 1014.7 hPa | - | - | - | - |
| 1777756426 | 20.56° C | 38% | 1014.6 hPa | - | - | - | - |
| 1777756126 | 20.56° C | 38% | 1014.7 hPa | - | - | - | - |
| 1777755826 | 21.11° C | 39% | 1014.7 hPa | - | - | - | - |
| 1777755526 | 21.67° C | 38% | 1014.7 hPa | - | - | - | - |
| 1777755226 | 23.33° C | 36% | 1014.5 hPa | - | - | - | - |
| 1777754925 | 23.89° C | 33% | 1014.4 hPa | - | - | - | - |
| 1777754625 | 24.44° C | 28% | 1014.5 hPa | - | - | - | - |
| 1777754325 | 24.44° C | 27% | 1014.3 hPa | - | - | - | - |
| 1777754026 | 23.89° C | 27% | 1014.2 hPa | - | - | - | - |
| 1777753725 | 24.44° C | 27% | 1014.3 hPa | - | - | - | - |
| 1777753425 | 24.44° C | 27% | 1014 hPa | - | - | - | - |
| 1777753125 | 25° C | 28% | 1014.4 hPa | - | - | - | - |
| 1777752825 | 24.44° C | 28% | 1014.5 hPa | - | - | - | - |
| 1777752525 | 25° C | 28% | 1014.4 hPa | - | - | - | - |
| 1777752225 | 25° C | 28% | 1014.5 hPa | - | - | - | - |
| 1777751924 | 25° C | 27% | 1014.5 hPa | - | - | - | - |
| 1777751625 | 25.56° C | 26% | 1014.2 hPa | - | - | - | - |
| 1777751325 | 25° C | 25% | 1014.4 hPa | - | - | - | - |
* Rain since midnight (hover to see other rain measurements)
** Current wind speed in m/s (hover to see current wind gust speed)